Дата Пункты Температура Давл., мм. Влажн., % Ветер Погодные явления
Воздуха Воды Направл. Скорость
27.10.19 02:00 Одесса 13.0 13.0 762 82 Пд 3 14 ГОДИН
27.10.19 11:00 Одесса 12.0 13.0 763 83 Пд-З 2 11 ГОДИН
27.10.19 08:00 Одесса 9.0 13.0 764 95 Пн 0 08 ГОДИН
27.10.19 05:00 Одесса 8.0 13.0 764 94 Пн 0 05 ГОДИН
27.10.19 03:00 Одесса 9.0 13.0 765 94 Пн 0 03 ГОДИНИ
26.10.19 09:00 Одесса 9.0 13.0 765 92 Пн-З 1 21 ГОДИНУ
26.10.19 06:00 Одесса 10.0 13.0 764 88 Пн 1 18 ГОДИН
26.10.19 03:00 Одесса 11.0 13.0 765 86 Пн 0 15 ГОДИН
26.10.19 12:00 Одесса 10.0 13.0 765 90 Пн-З 1 12 ГОДИН
26.10.19 09:00 Одесса 9.0 13.0 765 93 Пн-З 1 09 ГОДИН
26.10.19 06:00 Одесса 10.0 14.0 764 93 Пн-З 1 06 ГОДИН
26.10.19 03:00 Одесса 10.0 14.0 764 91 Пн 0 03 ГОДИНИ
25.10.19 09:00 Одесса 10.0 14.0 764 91 Пн 1 21 ГОДИНУ
25.10.19 06:00 Одесса 10.0 14.0 763 91 Пн 0 18 ГОДИН
25.10.19 03:00 Одесса 10.0 14.0 763 86 Пн 0 15 ГОДИН
25.10.19 12:00 Одесса 10.0 14.0 763 94 Пн-С 2 12 ГОДИН
25.10.19 09:00 Одесса 10.0 14.0 763 93 Пн-С 2 09 ГОДИН
25.10.19 06:00 Одесса 10.0 14.0 762 93 Пн 0 06 ГОДИН
25.10.19 03:00 Одесса 11.0 14.0 762 92 Пн 0 03 ГОДИНИ
24.10.19 09:00 Одесса 12.0 14.0 763 89 Пн-С 3 21 ГОДИНУ
Количество строк
1 2 3 4 5 6 7 8 9 10
Page 10 of 553